Mesa.AZweather.com - Mesa, AZ
   Red Mountain Frwy and University Dr., El 1518 ft.
        --- Monday  Sep. 9, 2019 ---
 
 High Temperature ..  98F at 14:40
 Low Temperature ...  74F at 05:25
 
 High Humidity .....  62% at 07:49
 Low Humidity ......  27% at 15:46
 
 Rainfall Total ....  0.00 in.
 
 High Wind Speed ... ---
                     
 
 High Barometer ....  29.93 at 09:44
 Low Barometer .....  29.75 at 17:41
 
Dew Point    High .... 67   Low ..... 55
 
 
 Time   Temp  Humi  Rain     Baro  DewPt  Wind
00:00,  84F, 40%, 0.00 in, 29.81, 57F, ---
00:30,  84F, 41%, 0.00 in, 29.81, 58F, ---
01:00,  84F, 42%, 0.00 in, 29.82, 59F, ---
01:30,  84F, 46%, 0.00 in, 29.83, 61F, ---
02:00,  83F, 47%, 0.00 in, 29.83, 60F, ---
02:30,  82F, 48%, 0.00 in, 29.84, 61F, ---
03:00,  80F, 49%, 0.00 in, 29.84, 60F, ---
03:30,  79F, 49%, 0.00 in, 29.85, 58F, ---
04:00,  78F, 51%, 0.00 in, 29.86, 59F, ---
04:30,  76F, 53%, 0.00 in, 29.86, 57F, ---
05:00,  75F, 54%, 0.00 in, 29.86, 57F, ---
05:30,  74F, 56%, 0.00 in, 29.87, 57F, ---
06:00,  74F, 56%, 0.00 in, 29.88, 57F, ---
06:30,  74F, 57%, 0.00 in, 29.89, 57F, ---
07:00,  75F, 60%, 0.00 in, 29.90, 60F, ---
07:30,  78F, 59%, 0.00 in, 29.90, 63F, ---
08:00,  81F, 62%, 0.00 in, 29.91, 66F, ---
08:30,  82F, 59%, 0.00 in, 29.92, 67F, ---
09:00,  85F, 54%, 0.00 in, 29.91, 66F, ---
09:30,  87F, 48%, 0.00 in, 29.92, 66F, ---
10:00,  89F, 45%, 0.00 in, 29.92, 65F, ---
10:30,  89F, 46%, 0.00 in, 29.91, 66F, ---
11:00,  91F, 43%, 0.00 in, 29.91, 66F, ---
11:30,  91F, 41%, 0.00 in, 29.90, 64F, ---
12:00,  92F, 38%, 0.00 in, 29.89, 62F, ---
12:30,  93F, 34%, 0.00 in, 29.88, 61F, ---
13:00,  93F, 36%, 0.00 in, 29.86, 62F, ---
13:30,  96F, 33%, 0.00 in, 29.85, 63F, ---
14:00,  97F, 31%, 0.00 in, 29.83, 61F, ---
14:30,  97F, 31%, 0.00 in, 29.81, 61F, ---
15:00,  97F, 29%, 0.00 in, 29.81, 59F, ---
15:30,  97F, 28%, 0.00 in, 29.80, 58F, ---
16:00,  97F, 27%, 0.00 in, 29.79, 57F, ---
16:30,  96F, 28%, 0.00 in, 29.77, 58F, ---
17:00,  96F, 27%, 0.00 in, 29.76, 57F, ---
17:30,  96F, 27%, 0.00 in, 29.76, 57F, ---
18:00,  95F, 28%, 0.00 in, 29.75, 57F, ---
18:30,  93F, 29%, 0.00 in, 29.75, 56F, ---
19:00,  92F, 30%, 0.00 in, 29.76, 56F, ---
19:30,  90F, 32%, 0.00 in, 29.76, 56F, ---
20:00,  89F, 34%, 0.00 in, 29.76, 58F, ---
20:30,  88F, 34%, 0.00 in, 29.77, 56F, ---
21:00,  87F, 35%, 0.00 in, 29.77, 57F, ---
21:30,  86F, 36%, 0.00 in, 29.77, 56F, ---
22:00,  85F, 38%, 0.00 in, 29.77, 56F, ---
22:30,  84F, 39%, 0.00 in, 29.79, 57F, ---
23:00,  83F, 41%, 0.00 in, 29.79, 56F, ---
23:30,  86F, 45%, 0.00 in, 29.80, 62F, ---
23:59,  86F, 48%, 0.00 in, 29.81, 64F, ---